STARLINK-37582, 69363

Orbit data source: Space-Track

STARLINK-37582, 69363 is a payload satellite owned by SpaceX/Seattle (US) in LEO that was launched on Thu, 04 Jun 2026 UTC via an FALCON 9 launch vehicle from the Air Force Eastern Test Range (AFETR). Payload-class satellites include a variety of spacecraft equipped with specific instruments for various scientific and technological missions. These include communications satellites like Starlink; space stations such as the ISS; scientific satellites like the Hubble; Earth observation satellites from companies like Planet Labs, Umbra, and HawkEye 360; GPS; miniature CubeSats for education and research; and military/defense satellites.

Loading next visibility...
Identifier
69363, 2026-123L
Orbit
LEO
Country
Flag of USUS
Related business
Manufacturer
SpaceX/Seattle
Mission
Operational spacecraft
Bus & Motor
STARLINK V2MO, Unknown motor
Mass
575 kg wet, ~530 kg dry
Launch date (UTC)
2026-06-04 (2 months ago)
Launch vehicle
FALCON 9
Launch site
Air Force Eastern Test Range (AFETR)
Object type
Payload
Rocket body
Debris
Shape & HBR
BOX + PAN, 17.7 m
Radar Cross Section
Large (>1 m²)

Expand to show TLE details & history
Last TLE update: 9 hours ago

TLE from 9 hours ago
0 STARLINK-37582
1 69363U 26123L   26207.56103841  .00364514  00000-0  22703-2 0  9995
2 69363  53.1555  45.9819 0001169 118.2960 241.8179 15.75346909  8248
Epoch: 2026-07-26T13:27Z
TLE epoch observation values (Epoch: 2026-07-26T13:27:53.718Z)
Latitude
0.00002°
Longitude
-100.24911°
Altitude
344.932 km
Speed
7.703 km/s
True Right ascension
03h 03m 55s
True Declination
0° 00' 00"
Sunlit
Object was in daylight at epoch
Visualization orbit readout
Latitude
Unknown
Longitude
Unknown
Altitude
Unknown
Speed
Unknown
Apparent Right ascension
Unknown
Apparent Declination
Unknown
Sunlit
N/A
Visualization observer readout
Local Sidereal Time
11:37:17
Azimuth
Unknown
Elevation
Unknown
Doppler factor
Unknown
Orbital elements
Apogee altitude
344.692 km
Perigee altitude
343.12 km
Semi-major axis
6,722.043 km
Eccentricity
0.00012
Inclination
53.1555°
RAAN
45.9819°
Arg. of periapsis
118.296°
True anomaly
241.80609°
Mean anomaly
241.8179°
Eccentric anomaly
241.812°
Mean motion
3.93814 °/min
Orbital period
91.41 mins
BSTAR
0.0022703
Loading maneuver chart data...
Computing Atmospheric mass density...
Loading historical data...
Loading historical data...
Loading historical data...
Loading historical data...
Loading historical data...
Loading historical data...
Loading historical data...

Documentation

Showing up to 5 results
|